This is the latest recevied weather packets stored in our database for station/object GW6922. If no packets are shown the sender has not sent any weather packets the latest 10 day(s).
| Time | Temp. | Humidity | Pressure | Rain* | Wind** | Luminosity | Snow |
|---|---|---|---|---|---|---|---|
| 1777526545 | 3.89° C | 74% | 1014.1 hPa | 0 mm | - | - | - |
| 1777522840 | 5.56° C | 66% | 1014.1 hPa | 0 mm | - | - | - |
| 1777520380 | 6.11° C | 63% | 1014.3 hPa | 0 mm | - | - | - |
| 1777519780 | 6.11° C | 61% | 1014.2 hPa | 0 mm | - | - | - |
| 1777513045 | 10.56° C | 41% | 1013 hPa | 0 mm | - | - | - |
| 1777512410 | 11.11° C | 39% | 1013 hPa | 0 mm | - | - | - |
| 1777509340 | 12.78° C | 34% | 1012.1 hPa | 0 mm | - | - | - |
| 1777504458 | 15° C | 30% | 1011.5 hPa | 0 mm | - | - | - |
| 1777503850 | 13.89° C | 33% | 1011.7 hPa | 0 mm | - | - | - |
| 1777502629 | 14.44° C | 32% | 1011.5 hPa | 0 mm | - | - | - |
| 1777499560 | 15.56° C | 32% | 1011.4 hPa | 0 mm | - | - | - |
| 1777497715 | 14.44° C | 33% | 1011.2 hPa | 0 mm | - | - | - |
| 1777492790 | 15.56° C | 34% | 1012.2 hPa | 0 mm | - | - | - |
| 1777492180 | 15.56° C | 35% | 1012.1 hPa | 0 mm | - | - | - |
| 1777489148 | 14.44° C | 35% | 1012.1 hPa | 0 mm | - | - | - |
| 1777486670 | 14.44° C | 33% | 1011.8 hPa | 0 mm | - | - | - |
| 1777483003 | 13.89° C | 41% | 1012.2 hPa | 0 mm | - | - | - |
| 1777476260 | 12.22° C | 45% | 1012.9 hPa | 0 mm | - | - | - |
| 1777475650 | 12.22° C | 49% | 1013 hPa | 0 mm | - | - | - |
| 1777474430 | 12.22° C | 51% | 1012.5 hPa | 0 mm | - | - | - |
| 1777471345 | 10.56° C | 58% | 1012.5 hPa | 0 mm | - | - | - |
| 1777469480 | 10° C | 61% | 1012.5 hPa | 0 mm | - | - | - |
| 1777467035 | 9.44° C | 66% | 1012.2 hPa | 0 mm | - | - | - |
| 1777464560 | 8.33° C | 70% | 1012 hPa | 0 mm | - | - | - |
| 1777459630 | 8.89° C | 69% | 1011.6 hPa | 0 mm | - | - | - |
* Rain latest hour (hover to see other rain measurements)
** Current wind speed in m/s (hover to see current wind gust speed)